TimeCDT,TemperatureF,Dew PointF,Humidity,Sea Level PressureIn,VisibilityMPH,Wind Direction,Wind SpeedMPH,Gust SpeedMPH,PrecipitationIn,Events,Conditions,WindDirDegrees,DateUTC
12:53 AM,68.0,59.0,73,29.80,10.0,Calm,Calm,-,N/A,,Clear,0,2013-09-24 05:53:00
1:53 AM,66.9,59.0,76,29.80,10.0,Calm,Calm,-,N/A,,Clear,0,2013-09-24 06:53:00
2:53 AM,66.0,60.1,81,29.80,10.0,Calm,Calm,-,N/A,,Clear,0,2013-09-24 07:53:00
3:53 AM,66.9,60.1,79,29.80,10.0,Calm,Calm,-,N/A,,Clear,0,2013-09-24 08:53:00
4:53 AM,66.0,59.0,78,29.81,10.0,Calm,Calm,-,N/A,,Clear,0,2013-09-24 09:53:00
5:53 AM,66.0,59.0,78,29.82,10.0,Calm,Calm,-,N/A,,Clear,0,2013-09-24 10:53:00
6:53 AM,64.9,59.0,81,29.84,10.0,Calm,Calm,-,N/A,,Clear,0,2013-09-24 11:53:00
7:53 AM,66.0,59.0,78,29.86,10.0,Calm,Calm,-,N/A,,Clear,0,2013-09-24 12:53:00
8:53 AM,75.0,62.1,64,29.88,10.0,Calm,Calm,-,N/A,,Clear,0,2013-09-24 13:53:00
9:53 AM,82.0,57.9,44,29.89,10.0,NW,3.5,-,N/A,,Clear,320,2013-09-24 14:53:00
10:53 AM,87.1,57.0,36,29.90,10.0,NNW,3.5,-,N/A,,Clear,330,2013-09-24 15:53:00
11:53 AM,90.0,61.0,38,29.88,10.0,Variable,3.5,-,N/A,,Clear,0,2013-09-24 16:53:00
12:53 PM,91.9,57.0,31,29.87,10.0,North,3.5,-,N/A,,Clear,10,2013-09-24 17:53:00
1:53 PM,93.9,57.0,29,29.84,10.0,Variable,5.8,-,N/A,,Clear,0,2013-09-24 18:53:00
2:53 PM,96.1,55.9,26,29.82,10.0,East,6.9,-,N/A,,Clear,80,2013-09-24 19:53:00
3:53 PM,97.0,55.0,24,29.80,10.0,East,5.8,-,N/A,,Clear,90,2013-09-24 20:53:00
4:53 PM,98.1,55.9,24,29.78,10.0,NE,6.9,-,N/A,,Clear,50,2013-09-24 21:53:00
5:53 PM,96.1,54.0,24,29.78,10.0,Calm,Calm,-,N/A,,Clear,0,2013-09-24 22:53:00
6:53 PM,93.0,57.9,31,29.78,10.0,ESE,11.5,-,N/A,,Clear,110,2013-09-24 23:53:00
7:53 PM,87.1,59.0,39,29.80,10.0,SE,3.5,-,N/A,,Clear,130,2013-09-25 00:53:00
8:53 PM,82.0,61.0,49,29.81,10.0,Calm,Calm,-,N/A,,Clear,0,2013-09-25 01:53:00
9:53 PM,79.0,62.1,56,29.83,10.0,Calm,Calm,-,N/A,,Clear,0,2013-09-25 02:53:00
10:53 PM,75.9,63.0,64,29.83,10.0,Calm,Calm,-,N/A,,Clear,0,2013-09-25 03:53:00
11:53 PM,75.0,63.0,66,29.83,10.0,Calm,Calm,-,N/A,,Clear,0,2013-09-25 04:53:00